This is the latest recevied weather packets stored in our database for station/object KN4MGS. If no packets are shown the sender has not sent any weather packets the latest 10 day(s).
| Time | Temp. | Humidity | Pressure | Rain* | Wind** | Luminosity | Snow |
|---|---|---|---|---|---|---|---|
| 1777723287 | 10.56° C | 99% | 1016.3 hPa | 0 mm | - | 28 W/m² | - |
| 1777722985 | 11.11° C | 99% | 1016.2 hPa | 0 mm | - | 20 W/m² | - |
| 1777722680 | 11.11° C | 99% | 1016.4 hPa | 0 mm | - | 13 W/m² | - |
| 1777722376 | 11.11° C | 99% | 1016.9 hPa | 0 mm | - | 10 W/m² | - |
| 1777722074 | 11.11° C | 99% | 1016.9 hPa | 0 mm | - | 8 W/m² | - |
| 1777721771 | 11.67° C | 99% | 1016.6 hPa | 0 mm | - | 8 W/m² | - |
| 1777721470 | 11.67° C | 99% | 1016.5 hPa | 0 mm | - | 7 W/m² | - |
| 1777721167 | 11.67° C | 99% | 1016.3 hPa | 0 mm | - | 5 W/m² | - |
| 1777720864 | 11.67° C | 99% | 1016.4 hPa | 0 mm | - | 6 W/m² | - |
| 1777720562 | 11.67° C | 99% | 1016.2 hPa | 0 mm | - | 6 W/m² | - |
| 1777720259 | 11.67° C | 99% | 1016.4 hPa | 0 mm | - | 7 W/m² | - |
| 1777719956 | 11.67° C | 99% | 1016.4 hPa | 0 mm | - | 5 W/m² | - |
| 1777719654 | 11.67° C | 99% | 1015.9 hPa | 0 mm | - | 3 W/m² | - |
| 1777719351 | 11.67° C | 99% | 1015.8 hPa | 0 mm | - | 2 W/m² | - |
| 1777719048 | 11.67° C | 99% | 1016 hPa | 0 mm | - | 0 W/m² | - |
| 1777718745 | 11.67° C | 99% | 1016 hPa | 0 mm | - | 0 W/m² | - |
| 1777718443 | 11.67° C | 99% | 1016 hPa | 0 mm | - | 0 W/m² | - |
| 1777718141 | 11.67° C | 99% | 1016.1 hPa | 0 mm | - | 0 W/m² | - |
| 1777717838 | 11.67° C | 99% | 1016 hPa | 0 mm | - | 0 W/m² | - |
| 1777717534 | 11.67° C | 99% | 1015.9 hPa | 0 mm | - | 0 W/m² | - |
| 1777717232 | 11.67° C | 99% | 1016.1 hPa | 0 mm | - | 0 W/m² | - |
| 1777716930 | 11.67° C | 99% | 1015.7 hPa | 0 mm | - | 0 W/m² | - |
| 1777716628 | 11.67° C | 99% | 1016 hPa | 0 mm | - | 0 W/m² | - |
| 1777716326 | 12.22° C | 99% | 1015.9 hPa | 0 mm | - | 0 W/m² | - |
| 1777716024 | 12.22° C | 99% | 1016.3 hPa | 0 mm | - | 0 W/m² | - |
* Rain latest hour (hover to see other rain measurements)
** Current wind speed in m/s (hover to see current wind gust speed)